When you browse on this site, cookies collect data to enhance your experience and personalize the content and advertising you see.
Visit our Privacy Policy to learn more. By continuing to use the site, you agree to this use of cookies and data.
  • în România
  • Lista ţărilor
  • Pe 7 zile
  • Temperatura apei
  • Meteo pe hartă
  • Widget-uri
  • user-avatar
    Intrare

    Meteo pe oră la La Paz

    Astăzi, 21 Ianuarie, Marţi

    Timp Temperatura Precipitaţii Vânt Presiune Umiditate
    00:00 +9°C° 0 mm 1 m/s 474 mmHg 86%
    01:00 +8°C° 0 mm 0 m/s 474 mmHg 86%
    02:00 +8°C° 0 mm 0 m/s 474 mmHg 87%
    03:00 +7°C° 0 mm 0 m/s 473 mmHg 88%
    04:00 +7°C° 0 mm 0 m/s 473 mmHg 88%
    05:00 +8°C° 0.3 mm 0 m/s 473 mmHg 87%
    06:00 +8°C° 0.3 mm 0 m/s 474 mmHg 85%
    07:00 +9°C° 0.3 mm 1 m/s 475 mmHg 83%
    08:00 +10°C° 0.5 mm 1 m/s 475 mmHg 79%
    09:00 +12°C° 0.5 mm 1 m/s 476 mmHg 75%
    10:00 +13°C° 0.5 mm 2 m/s 476 mmHg 71%
    11:00 +13°C° 0.7 mm 2 m/s 476 mmHg 68%
    12:00 +14°C° 0.7 mm 2 m/s 476 mmHg 66%
    13:00 +15°C° 0.7 mm 2 m/s 476 mmHg 63%
    14:00 +15°C° 0.6 mm 2 m/s 476 mmHg 64%
    15:00 +14°C° 0.6 mm 2 m/s 475 mmHg 65%
    16:00 +14°C° 0.6 mm 2 m/s 475 mmHg 66%
    17:00 +13°C° 0.6 mm 2 m/s 474 mmHg 71%
    18:00 +12°C° 0.6 mm 1 m/s 474 mmHg 76%
    19:00 +11°C° 0.6 mm 1 m/s 474 mmHg 81%
    20:00 +11°C° 0.2 mm 1 m/s 474 mmHg 81%
    21:00 +10°C° 0.2 mm 1 m/s 474 mmHg 80%
    22:00 +10°C° 0.2 mm 1 m/s 474 mmHg 79%
    23:00 +10°C° 0.1 mm 1 m/s 474 mmHg 81%

    Mâine, 22 Ianuarie, Miercuri

    Timp Temperatura Precipitaţii Vânt Presiune Umiditate
    00:00 +9°C° 0.1 mm 1 m/s 473 mmHg 83%
    01:00 +9°C° 0.1 mm 1 m/s 473 mmHg 85%
    02:00 +9°C° 0.1 mm 1 m/s 473 mmHg 85%
    03:00 +9°C° 0.1 mm 1 m/s 472 mmHg 86%
    04:00 +8°C° 0.1 mm 1 m/s 472 mmHg 86%
    05:00 +8°C° 0 mm 2 m/s 473 mmHg 83%
    06:00 +9°C° 0 mm 2 m/s 474 mmHg 80%
    07:00 +9°C° 0 mm 2 m/s 474 mmHg 77%
    08:00 +10°C° 0.1 mm 3 m/s 475 mmHg 74%
    09:00 +11°C° 0.1 mm 3 m/s 475 mmHg 71%
    10:00 +12°C° 0.1 mm 3 m/s 476 mmHg 68%
    11:00 +13°C° 0.5 mm 4 m/s 476 mmHg 66%
    12:00 +13°C° 0.5 mm 4 m/s 475 mmHg 65%
    13:00 +14°C° 0.5 mm 4 m/s 475 mmHg 63%
    14:00 +13°C° 0.2 mm 5 m/s 475 mmHg 64%
    15:00 +13°C° 0.2 mm 5 m/s 474 mmHg 65%
    16:00 +13°C° 0.2 mm 5 m/s 474 mmHg 66%
    17:00 +11°C° 0 mm 4 m/s 473 mmHg 71%
    18:00 +10°C° 0 mm 4 m/s 473 mmHg 75%
    19:00 +9°C° 0 mm 3 m/s 473 mmHg 80%
    20:00 +8°C° 0 mm 3 m/s 473 mmHg 82%
    21:00 +8°C° 0 mm 2 m/s 474 mmHg 83%
    22:00 +8°C° 0 mm 2 m/s 474 mmHg 85%
    23:00 +8°C° 0 mm 2 m/s 474 mmHg 85%

    Poimâine, 23 Ianuarie, Joi

    Timp Temperatura Precipitaţii Vânt Presiune Umiditate
    00:00 +8°C° 0 mm 2 m/s 473 mmHg 86%
    01:00 +9°C° 0 mm 1 m/s 473 mmHg 86%
    02:00 +9°C° 0.1 mm 1 m/s 473 mmHg 88%
    03:00 +8°C° 0.1 mm 1 m/s 473 mmHg 90%
    04:00 +8°C° 0.1 mm 1 m/s 472 mmHg 93%
    05:00 +8°C° 0.3 mm 1 m/s 473 mmHg 92%
    06:00 +8°C° 0.3 mm 1 m/s 473 mmHg 91%
    07:00 +9°C° 0.3 mm 1 m/s 474 mmHg 90%
    08:00 +8°C° 1.1 mm 2 m/s 474 mmHg 86%
    09:00 +9°C° 1.1 mm 2 m/s 475 mmHg 83%
    10:00 +9°C° 1.1 mm 3 m/s 475 mmHg 79%
    11:00 +9°C° 1 mm 3 m/s 475 mmHg 78%
    12:00 +10°C° 1 mm 3 m/s 474 mmHg 78%
    13:00 +10°C° 1 mm 4 m/s 474 mmHg 77%
    14:00 +10°C° 0.1 mm 4 m/s 474 mmHg 74%
    15:00 +11°C° 0.1 mm 4 m/s 474 mmHg 72%
    16:00 +11°C° 0.1 mm 3 m/s 474 mmHg 69%
    17:00 +10°C° 0 mm 3 m/s 473 mmHg 74%
    18:00 +9°C° 0 mm 3 m/s 473 mmHg 78%
    19:00 +8°C° 0 mm 3 m/s 473 mmHg 82%
    20:00 +7°C° 0 mm 3 m/s 473 mmHg 83%
    21:00 +7°C° 0 mm 3 m/s 473 mmHg 83%
    22:00 +7°C° 0 mm 2 m/s 473 mmHg 83%
    23:00 +6°C° 0 mm 2 m/s 473 mmHg 83%

    24 Ianuarie, Vineri

    Timp Temperatura Precipitaţii Vânt Presiune Umiditate
    00:00 +6°C° 0 mm 2 m/s 472 mmHg 83%
    01:00 +6°C° 0 mm 2 m/s 472 mmHg 83%
    02:00 +5°C° 0 mm 2 m/s 472 mmHg 84%
    03:00 +6°C° 0 mm 1 m/s 471 mmHg 86%
    04:00 +6°C° 0 mm 1 m/s 471 mmHg 87%
    05:00 +7°C° 0 mm 1 m/s 472 mmHg 85%
    06:00 +8°C° 0 mm 1 m/s 473 mmHg 82%
    07:00 +9°C° 0 mm 1 m/s 474 mmHg 79%
    08:00 +10°C° 0.1 mm 1 m/s 475 mmHg 75%
    09:00 +10°C° 0.1 mm 2 m/s 476 mmHg 72%
    10:00 +12°C° 0.1 mm 2 m/s 476 mmHg 68%
    11:00 +13°C° 0.3 mm 2 m/s 476 mmHg 68%
    12:00 +12°C° 0.3 mm 3 m/s 476 mmHg 67%
    13:00 +12°C° 0.3 mm 3 m/s 475 mmHg 67%
    14:00 +13°C° 0.2 mm 3 m/s 475 mmHg 66%
    15:00 +13°C° 0.2 mm 3 m/s 475 mmHg 64%
    16:00 +14°C° 0.2 mm 2 m/s 475 mmHg 63%
    17:00 +13°C° 0 mm 2 m/s 474 mmHg 70%
    18:00 +10°C° 0 mm 2 m/s 474 mmHg 76%
    19:00 +9°C° 0 mm 2 m/s 473 mmHg 83%
    20:00 +8°C° 0 mm 2 m/s 473 mmHg 84%
    21:00 +8°C° 0 mm 2 m/s 474 mmHg 86%
    22:00 +8°C° 0 mm 2 m/s 474 mmHg 88%
    23:00 +7°C° 0 mm 2 m/s 473 mmHg 87%

    25 Ianuarie, Sâmbătă

    Timp Temperatura Precipitaţii Vânt Presiune Umiditate
    00:00 +6°C° 0 mm 2 m/s 473 mmHg 87%
    01:00 +7°C° 0 mm 1 m/s 472 mmHg 87%
    02:00 +7°C° 0 mm 1 m/s 472 mmHg 88%
    03:00 +7°C° 0 mm 1 m/s 472 mmHg 89%
    04:00 +7°C° 0 mm 1 m/s 472 mmHg 90%
    05:00 +7°C° 0 mm 1 m/s 473 mmHg 86%
    06:00 +8°C° 0 mm 1 m/s 474 mmHg 82%
    07:00 +9°C° 0 mm 1 m/s 475 mmHg 78%
    08:00 +10°C° 0 mm 1 m/s 476 mmHg 73%
    09:00 +12°C° 0 mm 2 m/s 476 mmHg 68%
    10:00 +13°C° 0 mm 2 m/s 477 mmHg 62%
    11:00 +14°C° 0.1 mm 2 m/s 477 mmHg 63%
    12:00 +13°C° 0.1 mm 3 m/s 477 mmHg 64%
    13:00 +13°C° 0.1 mm 3 m/s 476 mmHg 64%
    14:00 +13°C° 0.3 mm 3 m/s 475 mmHg 67%
    15:00 +12°C° 0.3 mm 3 m/s 475 mmHg 69%
    16:00 +12°C° 0.3 mm 3 m/s 474 mmHg 72%
    17:00 +11°C° 0.2 mm 3 m/s 474 mmHg 76%
    18:00 +10°C° 0.2 mm 3 m/s 474 mmHg 80%
    19:00 +9°C° 0.2 mm 3 m/s 474 mmHg 83%
    20:00 +8°C° 0 mm 3 m/s 474 mmHg 84%
    21:00 +8°C° 0 mm 2 m/s 474 mmHg 85%
    22:00 +8°C° 0 mm 2 m/s 474 mmHg 86%
    23:00 +7°C° 0 mm 2 m/s 474 mmHg 88%

    26 Ianuarie, Duminică

    Timp Temperatura Precipitaţii Vânt Presiune Umiditate
    00:00 +7°C° 0 mm 2 m/s 473 mmHg 89%
    01:00 +8°C° 0 mm 1 m/s 473 mmHg 91%
    02:00 +7°C° 0 mm 1 m/s 473 mmHg 92%
    03:00 +7°C° 0 mm 1 m/s 473 mmHg 93%
    04:00 +7°C° 0 mm 1 m/s 472 mmHg 94%
    05:00 +8°C° 0 mm 1 m/s 473 mmHg 91%
    06:00 +8°C° 0 mm 1 m/s 474 mmHg 88%
    07:00 +9°C° 0 mm 1 m/s 475 mmHg 85%
    08:00 +10°C° 0.2 mm 1 m/s 476 mmHg 80%
    09:00 +10°C° 0.2 mm 2 m/s 476 mmHg 75%
    10:00 +12°C° 0.2 mm 2 m/s 477 mmHg 70%
    11:00 +13°C° 0.6 mm 2 m/s 477 mmHg 70%
    12:00 +13°C° 0.6 mm 2 m/s 477 mmHg 70%
    13:00 +12°C° 0.6 mm 3 m/s 477 mmHg 70%
    14:00 +13°C° 0.7 mm 2 m/s 476 mmHg 71%
    15:00 +13°C° 0.7 mm 2 m/s 475 mmHg 71%
    16:00 +13°C° 0.7 mm 2 m/s 474 mmHg 72%
    17:00 +12°C° 0.7 mm 2 m/s 474 mmHg 77%
    18:00 +10°C° 0.7 mm 2 m/s 474 mmHg 81%
    19:00 +9°C° 0.7 mm 2 m/s 474 mmHg 86%
    20:00 +9°C° 0.2 mm 2 m/s 474 mmHg 87%
    21:00 +10°C° 0.2 mm 1 m/s 474 mmHg 89%
    22:00 +9°C° 0.2 mm 1 m/s 474 mmHg 90%
    23:00 +9°C° 0.1 mm 1 m/s 474 mmHg 90%
    Arată mai mult